TimeCST,TemperatureF,Dew PointF,Humidity,Sea Level PressureIn,VisibilityMPH,Wind Direction,Wind SpeedMPH,Gust SpeedMPH,PrecipitationIn,Events,Conditions,WindDirDegrees,DateUTC
12:15 AM,33.8,28.4,81,30.29,10.0,South,11.5,-,N/A,,Clear,180,2012-12-13 06:15:00
12:35 AM,33.8,28.4,81,30.29,10.0,South,13.8,-,N/A,,Clear,180,2012-12-13 06:35:00
12:55 AM,33.8,28.4,81,30.28,10.0,South,13.8,-,N/A,,Clear,180,2012-12-13 06:55:00
1:15 AM,33.8,28.4,81,30.28,10.0,South,11.5,-,N/A,,Clear,180,2012-12-13 07:15:00
1:35 AM,33.8,28.4,81,30.29,10.0,South,12.7,-,N/A,,Clear,180,2012-12-13 07:35:00
1:55 AM,33.8,28.4,81,30.28,10.0,South,12.7,19.6,N/A,,Clear,180,2012-12-13 07:55:00
2:15 AM,33.8,28.4,81,30.28,10.0,South,13.8,-,N/A,,Clear,180,2012-12-13 08:15:00
2:35 AM,35.6,28.4,75,30.28,10.0,South,13.8,-,N/A,,Clear,190,2012-12-13 08:35:00
2:55 AM,35.6,28.4,75,30.28,10.0,South,16.1,-,N/A,,Clear,190,2012-12-13 08:55:00
3:15 AM,33.8,28.4,81,30.28,10.0,South,12.7,-,N/A,,Clear,190,2012-12-13 09:15:00
3:35 AM,33.8,26.6,75,30.28,10.0,SSW,11.5,-,N/A,,Clear,200,2012-12-13 09:35:00
3:55 AM,33.8,26.6,75,30.27,10.0,South,13.8,-,N/A,,Clear,190,2012-12-13 09:55:00
4:15 AM,35.6,26.6,70,30.27,10.0,South,12.7,-,N/A,,Clear,190,2012-12-13 10:15:00
4:35 AM,33.8,26.6,75,30.28,10.0,SSW,11.5,-,N/A,,Clear,200,2012-12-13 10:35:00
4:55 AM,33.8,26.6,75,30.28,10.0,South,11.5,-,N/A,,Clear,190,2012-12-13 10:55:00
5:15 AM,33.8,26.6,75,30.28,10.0,South,11.5,-,N/A,,Clear,180,2012-12-13 11:15:00
5:35 AM,33.8,26.6,75,30.29,10.0,South,9.2,-,N/A,,Clear,190,2012-12-13 11:35:00
5:55 AM,32.0,26.6,80,30.29,10.0,South,9.2,-,N/A,,Clear,180,2012-12-13 11:55:00
6:15 AM,32.0,26.6,80,30.28,10.0,South,13.8,-,N/A,,Clear,180,2012-12-13 12:15:00
6:35 AM,32.0,26.6,80,30.28,10.0,South,13.8,-,N/A,,Clear,180,2012-12-13 12:35:00
6:55 AM,32.0,26.6,80,30.27,10.0,South,12.7,-,N/A,,Clear,180,2012-12-13 12:55:00
7:15 AM,32.0,26.6,80,30.27,10.0,South,12.7,-,N/A,,Clear,180,2012-12-13 13:15:00
7:35 AM,33.8,26.6,75,30.27,10.0,South,13.8,-,N/A,,Clear,180,2012-12-13 13:35:00
7:55 AM,33.8,26.6,75,30.27,10.0,South,16.1,-,N/A,,Clear,190,2012-12-13 13:55:00
8:15 AM,35.6,26.6,70,30.26,10.0,South,18.4,21.9,N/A,,Clear,190,2012-12-13 14:15:00
8:35 AM,37.4,26.6,65,30.27,10.0,South,18.4,-,N/A,,Clear,190,2012-12-13 14:35:00
8:55 AM,37.4,28.4,70,30.27,10.0,SSW,16.1,23.0,N/A,,Clear,200,2012-12-13 14:55:00
9:15 AM,39.2,28.4,65,30.27,10.0,South,16.1,-,N/A,,Clear,190,2012-12-13 15:15:00
9:35 AM,39.2,28.4,65,30.26,10.0,South,17.3,-,N/A,,Clear,190,2012-12-13 15:35:00
9:55 AM,41.0,28.4,61,30.26,10.0,South,18.4,24.2,N/A,,Clear,190,2012-12-13 15:55:00
10:15 AM,42.8,28.4,57,30.26,10.0,South,17.3,21.9,N/A,,Clear,190,2012-12-13 16:15:00
10:35 AM,42.8,28.4,57,30.25,10.0,South,20.7,24.2,N/A,,Clear,190,2012-12-13 16:35:00
10:55 AM,44.6,28.4,53,30.24,10.0,South,20.7,28.8,N/A,,Clear,190,2012-12-13 16:55:00
11:15 AM,44.6,28.4,53,30.23,10.0,South,20.7,26.5,N/A,,Clear,190,2012-12-13 17:15:00
11:35 AM,46.4,28.4,50,30.22,10.0,South,21.9,27.6,N/A,,Clear,190,2012-12-13 17:35:00
11:55 AM,46.4,28.4,50,30.21,10.0,South,20.7,31.1,N/A,,Clear,190,2012-12-13 17:55:00
12:15 PM,48.2,26.6,43,30.20,10.0,SSW,23.0,31.1,N/A,,Clear,200,2012-12-13 18:15:00
12:35 PM,48.2,26.6,43,30.19,10.0,SSW,18.4,29.9,N/A,,Clear,200,2012-12-13 18:35:00
12:55 PM,48.2,26.6,43,30.19,10.0,SSW,20.7,28.8,N/A,,Clear,200,2012-12-13 18:55:00
1:15 PM,48.2,26.6,43,30.18,10.0,SSW,19.6,27.6,N/A,,Clear,200,2012-12-13 19:15:00
1:35 PM,48.2,28.4,46,30.17,10.0,South,21.9,29.9,N/A,,Clear,190,2012-12-13 19:35:00
1:55 PM,48.2,28.4,46,30.16,10.0,South,17.3,27.6,N/A,,Clear,190,2012-12-13 19:55:00
2:15 PM,48.2,26.6,43,30.14,10.0,SSW,20.7,24.2,N/A,,Clear,200,2012-12-13 20:15:00
2:35 PM,48.2,28.4,46,30.14,10.0,South,23.0,-,N/A,,Clear,190,2012-12-13 20:35:00
2:55 PM,48.2,28.4,46,30.14,10.0,South,20.7,26.5,N/A,,Clear,190,2012-12-13 20:55:00
3:15 PM,48.2,28.4,46,30.13,10.0,South,24.2,29.9,N/A,,Clear,190,2012-12-13 21:15:00
3:35 PM,48.2,28.4,46,30.13,10.0,SSW,17.3,20.7,N/A,,Clear,200,2012-12-13 21:35:00
3:55 PM,46.4,30.2,53,30.14,10.0,South,15.0,23.0,N/A,,Clear,190,2012-12-13 21:55:00
4:15 PM,44.6,30.2,57,30.14,10.0,South,17.3,-,N/A,,Clear,180,2012-12-13 22:15:00
4:35 PM,44.6,32.0,61,30.13,10.0,South,13.8,-,N/A,,Clear,190,2012-12-13 22:35:00
5:35 PM,41.0,32.0,70,30.14,10.0,SSW,10.4,-,N/A,,Clear,200,2012-12-13 23:35:00
6:15 PM,39.2,30.2,70,30.13,10.0,SSW,11.5,-,N/A,,Clear,200,2012-12-14 00:15:00
6:55 PM,37.4,30.2,75,30.16,10.0,SW,4.6,-,N/A,,Clear,220,2012-12-14 00:55:00
7:15 PM,35.6,30.2,81,30.17,10.0,WSW,4.6,-,N/A,,Clear,250,2012-12-14 01:15:00
7:35 PM,37.4,28.4,70,30.17,10.0,Calm,Calm,-,N/A,,Clear,0,2012-12-14 01:35:00
7:55 PM,37.4,28.4,70,30.17,10.0,SSW,5.8,-,N/A,,Clear,200,2012-12-14 01:55:00
8:15 PM,35.6,30.2,81,30.16,10.0,South,6.9,-,N/A,,Clear,190,2012-12-14 02:15:00
8:35 PM,35.6,28.4,75,30.16,10.0,South,3.5,-,N/A,,Clear,190,2012-12-14 02:35:00
8:55 PM,35.6,28.4,75,30.16,10.0,South,6.9,-,N/A,,Clear,180,2012-12-14 02:55:00
9:15 PM,33.8,28.4,81,30.17,10.0,South,5.8,-,N/A,,Clear,180,2012-12-14 03:15:00
9:35 PM,33.8,28.4,81,30.17,10.0,South,5.8,-,N/A,,Clear,180,2012-12-14 03:35:00
9:55 PM,33.8,28.4,81,30.17,10.0,South,6.9,-,N/A,,Clear,180,2012-12-14 03:55:00
10:15 PM,32.0,28.4,87,30.17,10.0,South,5.8,-,N/A,,Clear,180,2012-12-14 04:15:00
10:35 PM,32.0,28.4,87,30.17,10.0,South,5.8,-,N/A,,Clear,180,2012-12-14 04:35:00
10:55 PM,32.0,28.4,87,30.17,10.0,South,3.5,-,N/A,,Clear,180,2012-12-14 04:55:00
11:15 PM,30.2,26.6,86,30.17,10.0,South,3.5,-,N/A,,Clear,180,2012-12-14 05:15:00
11:35 PM,30.2,26.6,86,30.17,10.0,South,3.5,-,N/A,,Clear,190,2012-12-14 05:35:00
11:55 PM,32.0,28.4,87,30.17,10.0,Calm,Calm,-,N/A,,Clear,0,2012-12-14 05:55:00